Hourly Weather Berat

Today, 9 July, Thursday

Time Temperature Precipitation Wind Pressure Humidity
00:00 +22°C° 0 mm 1 mps 745 mmHg 74%
01:00 +22°C° 0 mm 1 mps 744 mmHg 73%
02:00 +22°C° 0 mm 1 mps 744 mmHg 73%
03:00 +20°C° 0 mm 2 mps 744 mmHg 72%
04:00 +20°C° 0 mm 2 mps 744 mmHg 72%
05:00 +23°C° 0 mm 1 mps 745 mmHg 68%
06:00 +25°C° 0 mm 1 mps 745 mmHg 63%
07:00 +26°C° 0 mm 1 mps 745 mmHg 59%
08:00 +28°C° 0 mm 1 mps 745 mmHg 55%
09:00 +30°C° 0 mm 1 mps 745 mmHg 51%
10:00 +32°C° 0 mm 1 mps 746 mmHg 47%
11:00 +32°C° 0 mm 2 mps 745 mmHg 46%
12:00 +32°C° 0 mm 2 mps 745 mmHg 45%
13:00 +34°C° 0 mm 3 mps 745 mmHg 43%
14:00 +33°C° 0 mm 3 mps 745 mmHg 45%
15:00 +33°C° 0 mm 3 mps 745 mmHg 46%
16:00 +31°C° 0 mm 3 mps 744 mmHg 48%
17:00 +29°C° 0 mm 2 mps 744 mmHg 54%
18:00 +28°C° 0 mm 2 mps 744 mmHg 60%
19:00 +26°C° 0 mm 1 mps 744 mmHg 66%
20:00 +25°C° 0 mm 1 mps 744 mmHg 66%
21:00 +24°C° 0 mm 1 mps 745 mmHg 67%
22:00 +24°C° 0 mm 1 mps 745 mmHg 68%
23:00 +24°C° 0 mm 1 mps 745 mmHg 68%

Tomorrow, 10 July, Friday

Time Temperature Precipitation Wind Pressure Humidity
00:00 +23°C° 0 mm 1 mps 745 mmHg 68%
01:00 +23°C° 0 mm 2 mps 745 mmHg 68%
02:00 +23°C° 0 mm 2 mps 744 mmHg 69%
03:00 +23°C° 0 mm 2 mps 744 mmHg 69%
04:00 +21°C° 0 mm 2 mps 744 mmHg 70%
05:00 +24°C° 0 mm 2 mps 744 mmHg 66%
06:00 +26°C° 0 mm 1 mps 744 mmHg 62%
07:00 +28°C° 0 mm 1 mps 744 mmHg 58%
08:00 +29°C° 0 mm 1 mps 745 mmHg 52%
09:00 +31°C° 0 mm 1 mps 745 mmHg 46%
10:00 +33°C° 0 mm 1 mps 745 mmHg 40%
11:00 +34°C° 0 mm 2 mps 745 mmHg 39%
12:00 +35°C° 0 mm 2 mps 744 mmHg 39%
13:00 +35°C° 0 mm 3 mps 744 mmHg 38%
14:00 +34°C° 0 mm 3 mps 744 mmHg 41%
15:00 +34°C° 0 mm 3 mps 744 mmHg 44%
16:00 +33°C° 0 mm 3 mps 743 mmHg 47%
17:00 +30°C° 0 mm 2 mps 743 mmHg 52%
18:00 +28°C° 0 mm 2 mps 743 mmHg 58%
19:00 +27°C° 0 mm 1 mps 743 mmHg 63%
20:00 +26°C° 0 mm 1 mps 743 mmHg 65%
21:00 +25°C° 0 mm 1 mps 744 mmHg 66%
22:00 +25°C° 0 mm 1 mps 744 mmHg 67%
23:00 +25°C° 0 mm 1 mps 744 mmHg 68%

Day after tomorrow, 11 July, Saturday

Time Temperature Precipitation Wind Pressure Humidity
00:00 +24°C° 0 mm 1 mps 744 mmHg 68%
01:00 +24°C° 0 mm 1 mps 744 mmHg 69%
02:00 +24°C° 0 mm 1 mps 744 mmHg 69%
03:00 +24°C° 0 mm 1 mps 744 mmHg 70%
04:00 +23°C° 0 mm 1 mps 744 mmHg 70%
05:00 +25°C° 0 mm 1 mps 744 mmHg 66%
06:00 +26°C° 0 mm 1 mps 744 mmHg 61%
07:00 +28°C° 0 mm 1 mps 744 mmHg 57%
08:00 +30°C° 0 mm 1 mps 744 mmHg 52%
09:00 +31°C° 0 mm 1 mps 744 mmHg 48%
10:00 +33°C° 0 mm 1 mps 744 mmHg 44%
11:00 +34°C° 0 mm 2 mps 744 mmHg 43%
12:00 +34°C° 0 mm 3 mps 743 mmHg 42%
13:00 +35°C° 0 mm 4 mps 743 mmHg 41%
14:00 +34°C° 0.1 mm 3 mps 743 mmHg 43%
15:00 +33°C° 0.1 mm 3 mps 742 mmHg 44%
16:00 +33°C° 0.1 mm 3 mps 742 mmHg 46%
17:00 +30°C° 0 mm 2 mps 742 mmHg 50%
18:00 +28°C° 0 mm 2 mps 742 mmHg 54%
19:00 +27°C° 0 mm 1 mps 742 mmHg 58%
20:00 +26°C° 0 mm 1 mps 743 mmHg 58%
21:00 +25°C° 0 mm 1 mps 743 mmHg 59%
22:00 +25°C° 0 mm 1 mps 743 mmHg 59%
23:00 +24°C° 0 mm 1 mps 743 mmHg 60%

12 July, Sunday

Time Temperature Precipitation Wind Pressure Humidity
00:00 +24°C° 0 mm 1 mps 742 mmHg 62%
01:00 +22°C° 0 mm 0 mps 742 mmHg 63%
02:00 +23°C° 0 mm 1 mps 742 mmHg 64%
03:00 +23°C° 0 mm 1 mps 742 mmHg 65%
04:00 +23°C° 0 mm 1 mps 742 mmHg 66%
05:00 +25°C° 0 mm 1 mps 742 mmHg 61%
06:00 +24°C° 0 mm 0 mps 742 mmHg 56%
07:00 +26°C° 0 mm 0 mps 742 mmHg 51%
08:00 +30°C° 0 mm 1 mps 743 mmHg 47%
09:00 +31°C° 0 mm 2 mps 743 mmHg 42%
10:00 +33°C° 0 mm 3 mps 743 mmHg 37%
11:00 +34°C° 0 mm 3 mps 743 mmHg 37%
12:00 +34°C° 0 mm 4 mps 743 mmHg 38%
13:00 +34°C° 0 mm 5 mps 743 mmHg 38%
14:00 +34°C° 0 mm 4 mps 743 mmHg 42%
15:00 +33°C° 0 mm 4 mps 742 mmHg 45%
16:00 +32°C° 0 mm 4 mps 742 mmHg 49%
17:00 +29°C° 0 mm 3 mps 743 mmHg 58%
18:00 +27°C° 0 mm 3 mps 743 mmHg 66%
19:00 +25°C° 0 mm 2 mps 743 mmHg 75%
20:00 +25°C° 0 mm 1 mps 743 mmHg 80%
21:00 +24°C° 0 mm 1 mps 743 mmHg 85%
22:00 +23°C° 0 mm 1 mps 743 mmHg 90%
23:00 +23°C° 0 mm 1 mps 743 mmHg 90%

13 July, Monday

Time Temperature Precipitation Wind Pressure Humidity
00:00 +22°C° 0 mm 1 mps 743 mmHg 91%
01:00 +22°C° 0 mm 1 mps 743 mmHg 92%
02:00 +22°C° 0 mm 1 mps 743 mmHg 92%
03:00 +22°C° 0 mm 1 mps 743 mmHg 92%
04:00 +22°C° 0 mm 1 mps 742 mmHg 92%
05:00 +23°C° 0 mm 1 mps 743 mmHg 84%
06:00 +24°C° 0 mm 2 mps 743 mmHg 77%
07:00 +26°C° 0 mm 2 mps 743 mmHg 69%
08:00 +27°C° 0 mm 2 mps 743 mmHg 63%
09:00 +29°C° 0 mm 2 mps 743 mmHg 56%
10:00 +30°C° 0 mm 3 mps 743 mmHg 50%
11:00 +31°C° 0 mm 3 mps 743 mmHg 47%
12:00 +32°C° 0 mm 4 mps 743 mmHg 44%
13:00 +33°C° 0 mm 4 mps 742 mmHg 41%
14:00 +33°C° 0 mm 4 mps 742 mmHg 42%
15:00 +32°C° 0 mm 4 mps 742 mmHg 43%
16:00 +32°C° 0 mm 4 mps 742 mmHg 43%
17:00 +29°C° 0 mm 3 mps 742 mmHg 49%
18:00 +27°C° 0 mm 3 mps 742 mmHg 55%
19:00 +25°C° 0 mm 2 mps 742 mmHg 61%
20:00 +24°C° 0 mm 2 mps 742 mmHg 64%
21:00 +23°C° 0 mm 2 mps 742 mmHg 67%
22:00 +21°C° 0 mm 2 mps 743 mmHg 70%
23:00 +20°C° 0 mm 2 mps 743 mmHg 70%

14 July, Tuesday

Time Temperature Precipitation Wind Pressure Humidity
00:00 +20°C° 0 mm 2 mps 742 mmHg 69%
01:00 +19°C° 0 mm 2 mps 742 mmHg 69%
02:00 +19°C° 0 mm 2 mps 742 mmHg 67%
03:00 +19°C° 0 mm 2 mps 742 mmHg 66%
04:00 +19°C° 0 mm 2 mps 742 mmHg 64%
05:00 +20°C° 0 mm 2 mps 742 mmHg 60%
06:00 +23°C° 0 mm 2 mps 743 mmHg 56%
07:00 +24°C° 0 mm 2 mps 743 mmHg 52%
08:00 +26°C° 0 mm 2 mps 743 mmHg 48%
09:00 +28°C° 0 mm 1 mps 743 mmHg 45%
10:00 +30°C° 0 mm 1 mps 743 mmHg 41%
11:00 +30°C° 0 mm 2 mps 743 mmHg 41%
12:00 +30°C° 0 mm 2 mps 743 mmHg 40%
13:00 +31°C° 0 mm 3 mps 743 mmHg 40%
14:00 +30°C° 0 mm 3 mps 743 mmHg 41%
15:00 +30°C° 0 mm 4 mps 742 mmHg 43%
16:00 +30°C° 0 mm 4 mps 742 mmHg 44%
17:00 +28°C° 0 mm 3 mps 742 mmHg 51%
18:00 +26°C° 0 mm 2 mps 742 mmHg 58%
19:00 +24°C° 0 mm 1 mps 743 mmHg 65%
20:00 +23°C° 0 mm 1 mps 743 mmHg 68%
21:00 +22°C° 0 mm 1 mps 743 mmHg 70%
22:00 +21°C° 0 mm 1 mps 744 mmHg 73%
23:00 +21°C° 0 mm 1 mps 744 mmHg 73%
Show more